Showing default

STRIX-6, 68291

Orbit data source: Space-Track

STRIX-6, 68291 is a payload satellite owned by Synspective (JP) in LEO that was launched on Fri, 20 Mar 2026 UTC via an ELECTRON launch vehicle from the Rocket Lab Launch Complex (RLLC). Payload-class satellites include a variety of spacecraft equipped with specific instruments for various scientific and technological missions. These include communications satellites like Starlink; space stations such as the ISS; scientific satellites like the Hubble; Earth observation satellites from companies like Planet Labs, Umbra, and HawkEye 360; GPS; miniature CubeSats for education and research; and military/defense satellites.

Loading next visibility...
Identifier
68291, 2026-056A
Orbit
LEO
Country
Flag of JPJP / JPN
Related business
Manufacturer
Synspective
Mission
Operational spacecraft
Bus & Motor
STRIX, Unknown motor
Mass
150 kg wet, 150 kg dry
Launch date (UTC)
2026-03-20 (3 months ago)
Launch vehicle
ELECTRON
Launch site
Rocket Lab Launch Complex (RLLC)
Object type
Payload
Rocket body
Debris
Shape & HBR
Unknown shape, 1.0 m
Radar Cross Section
Medium (>0.1 m² and <1 m²)

Expand to show TLE details & history
Last TLE update: 9 hours ago

TLE from 9 hours ago
0 STRIX-6
1 68291U 26056A   26171.45796429  .00002420  00000-0  21200-3 0  9994
2 68291  50.2844 334.3341 0016408 255.9404 103.9721 15.00182054 13766
Epoch: 2026-06-20T10:59Z
TLE epoch observation values (Epoch: 2026-06-20T10:59:28.114Z)
Latitude
-0.00006°
Longitude
-99.20539°
Altitude
569.682 km
Speed
7.576 km/s
True Right ascension
22h 17m 20s
True Declination
0° 00' 00"
Sunlit
Object was in daylight at epoch
Visualization orbit readout
Latitude
Unknown
Longitude
Unknown
Altitude
Unknown
Speed
Unknown
Apparent Right ascension
Unknown
Apparent Declination
Unknown
Sunlit
N/A
Visualization observer readout
Local Sidereal Time
07:20:28
Azimuth
Unknown
Elevation
Unknown
Doppler factor
Unknown
Orbital elements
Apogee altitude
578.448 km
Perigee altitude
555.656 km
Semi-major axis
6,945.189 km
Eccentricity
0.00164
Inclination
50.2844°
RAAN
334.3341°
Arg. of periapsis
255.9404°
True anomaly
104.15447°
Mean anomaly
103.9721°
Eccentric anomaly
104.06329°
Mean motion
3.74988 °/min
Orbital period
96 mins
BSTAR
0.000212
Loading maneuver chart data...
Computing Atmospheric mass density...
Loading historical data...
Loading historical data...
Loading historical data...
Loading historical data...
Loading historical data...
Loading historical data...
Loading historical data...
Other satellites on launch #56 in the year 2026 (2026-03-20 UTC)

Documentation

Showing up to 5 results
|